Other Public Products
Issued by NWS Charleston, SC

Current Version | Previous Version | Text Only | Print | Product List | Glossary Off
Versions: 1 2 3 4 5 6 7 8 9 10 11 12 13 14 15 16 17 18 19 20 21 22 23 24 25 26 27 28 29 30 31 32 33 34 35 36 37 38 39 40 41 42 43 44 45 46 47 48 49 50
000 FPUS82 KCHS 230912 OPUCHS TEST...KCHS/KSAV Gateway Observations...TEST National Weather Service Charleston SC 400 AM EST FRI FEB 23 2018 NOTE: "fair" indicates few or no clouds below 12,000 feet with no significant weather and/or obstructions to visibility. SCZ050-WAZ558-NCZ071-TXZ119-213-PAZ071-DCZ001-FLZ074-172-MI076- NYZ176-178-MAZ016-IL014-TNZ027-NJZ106-GAZ044-MD014-231000- ...Gateway Observations for Charleston International... CITY SKY/WX TMP DP RH WIND PRES REMARKS Chas Airport FAIR 61 60 97 CALM 30.40F Seattle PTCLDY 26 20 77 SE8 30.44R WCI 18 Charlotte FAIR 59 58 96 CALM 30.41S Dallas DFW TSTM 40 38 93 N10 30.17F FOG WCI 33 Dallas Love TSTM 40 39 97 N6 30.23R VSB 3/4 WCI 36 Philladelphia LGT RAIN 38 35 89 E13 30.61F WCI 30 Wash National CLOUDY 42 39 89 NE9 30.59S Baltimore CLOUDY 40 39 97 E13 30.59S WCI 32 Miami MOCLDY 75 68 78 E10 30.29S Detroit DRIZZLE 35 33 92 E7 30.33F FOG WCI 29 Newark CLOUDY 37 33 85 NE6 30.65S WCI 32 Laguardia CLOUDY 37 32 82 NE10 30.65R WCI 30 J F K CLOUDY 36 34 92 NE9 30.66R WCI 29 Boston Logan FAIR 32 29 88 N7 30.68F WCI 26 Ft. Lauderdale CLOUDY 75 71 87 E14G20 30.28S Chicago O`Hare CLOUDY 39 37 92 SE9 30.14F FOG WCI 33 Chicago Midway CLOUDY 39 38 96 SE9 30.16F FOG WCI 33 Houston Bush FOG 57 57 100 N6 30.21F VSB 1/8 Houston Hobby CLOUDY 64 64 100 NW5 30.19F FOG Nashville FAIR 58 56 93 S3 30.26S Atlanta FAIR 62 60 93 SE5 30.38S $$ GAZ044-118-TXZ119-213-NCZ071-DCZ001-MDZ014-506-PAZ021-071-NJZ106- NYZ176-178-MAZ106-OHZ011-021-055-MIZ076-KYZ091-ILZ014-INZ047- MNZ060-ONZ431-231000- ...Gateway Observations for Savannah International... CITY SKY/WX TMP DP RH WIND PRES REMARKS Savannah Arpt FAIR 59 59 100 SE3 30.39F Atlanta FAIR 62 60 93 SE5 30.38S Charlotte FAIR 59 58 96 CALM 30.41S Dallas DFW TSTM 40 38 93 N10 30.17F FOG WCI 33 Houston Bush FOG 57 57 100 N6 30.21F VSB 1/8 Wash National CLOUDY 42 39 89 NE9 30.59S Wash Dulles CLOUDY 40 39 97 E7 30.58S WCI 35 Baltimore CLOUDY 40 39 97 E13 30.59S WCI 32 Philadelphia LGT RAIN 38 35 89 E13 30.61F WCI 30 Newark CLOUDY 37 33 85 NE6 30.65S WCI 32 Laguardia CLOUDY 37 32 82 NE10 30.65R WCI 30 J F K CLOUDY 36 34 92 NE9 30.66R WCI 29 Boston FAIR 32 29 88 N7 30.68F WCI 26 Pittsburg CLOUDY 42 41 96 SE8 30.33F FOG Akron FOG 42 39 89 SE10 30.31F VSB 3/4 Cleveland CLOUDY 40 39 97 SE3 30.34F FOG Cincinnati LGT RAIN 47 47 100 E5 30.28F VSB 1/2 Columbus CLOUDY 42 42 100 CALM 30.32S FOG Detroit DRIZZLE 35 33 92 E7 30.33F FOG WCI 29 Chicago O`Hare CLOUDY 39 37 92 SE9 30.14F FOG WCI 33 Minneapolis LGT SNOW 26 26 100 E7 30.05F FOG WCI 18 Indianapolis LGT RAIN 45 45 100 VRB3 30.19F FOG Toronto Canada CLOUDY 30 25 80 E12G20 30.47F WCI 21 $$

USA.gov is the U.S. government's official web portal to all federal, state and local government web resources and services.